This is the latest recevied weather packets stored in our database for station/object K0VSC-1. If no packets are shown the sender has not sent any weather packets the latest 1 day(s).
| Time | Temp. | Humidity | Pressure | Rain* | Wind** | Luminosity | Snow |
|---|---|---|---|---|---|---|---|
| 1778038384 | 1.67° C | 60% | 1014.6 hPa | 0 mm | 1.34 m/s, 328° | 0 W/m² | - |
| 1778038084 | 1.67° C | 60% | 1014.6 hPa | 0 mm | 1.34 m/s, 355° | 0 W/m² | - |
| 1778037784 | 1.67° C | 60% | 1014.6 hPa | 0 mm | 1.34 m/s, 344° | 0 W/m² | - |
| 1778037484 | 1.67° C | 60% | 1014.6 hPa | 0 mm | 1.34 m/s, 331° | 0 W/m² | - |
| 1778037184 | 1.67° C | 59% | 1014.6 hPa | 0 mm | 1.79 m/s, 350° | 0 W/m² | - |
| 1778036897 | 1.67° C | 59% | 1014.7 hPa | 0 mm | 1.34 m/s, 348° | 0 W/m² | - |
| 1778036584 | 2.22° C | 58% | 1014.7 hPa | 0 mm | 1.34 m/s, 340° | 0 W/m² | - |
| 1778036284 | 2.22° C | 58% | 1014.7 hPa | 0 mm | 1.34 m/s, 346° | 0 W/m² | - |
| 1778036017 | 2.22° C | 57% | 1014.6 hPa | 0 mm | 1.34 m/s, 337° | 0 W/m² | - |
| 1778035984 | 2.22° C | 57% | 1014.6 hPa | 0 mm | 1.34 m/s, 337° | 0 W/m² | - |
| 1778035684 | 2.22° C | 57% | 1014.6 hPa | 0 mm | 1.34 m/s, 340° | 0 W/m² | - |
| 1778035384 | 2.22° C | 57% | 1014.6 hPa | 0 mm | 1.34 m/s, 5° | 0 W/m² | - |
| 1778035084 | 2.78° C | 56% | 1014.3 hPa | 0 mm | 1.34 m/s, 349° | 0 W/m² | - |
| 1778034848 | 2.78° C | 56% | 1014.3 hPa | 0 mm | 1.34 m/s, 348° | 0 W/m² | - |
| 1778034784 | 2.78° C | 56% | 1014.3 hPa | 0 mm | 1.34 m/s, 348° | 0 W/m² | - |
| 1778034484 | 2.78° C | 55% | 1014.2 hPa | 0 mm | 1.79 m/s, 331° | 0 W/m² | - |
| 1778034184 | 2.78° C | 55% | 1014.1 hPa | 0 mm | 1.79 m/s, 318° | 0 W/m² | - |
| 1778033884 | 2.78° C | 55% | 1013.9 hPa | 0 mm | 1.79 m/s, 324° | 0 W/m² | - |
| 1778033584 | 2.78° C | 54% | 1014 hPa | 0 mm | 1.79 m/s, 340° | 0 W/m² | - |
| 1778033284 | 2.78° C | 54% | 1013.9 hPa | 0 mm | 1.79 m/s, 329° | 0 W/m² | - |
| 1778032984 | 3.33° C | 54% | 1013.8 hPa | 0 mm | 1.34 m/s, 326° | 0 W/m² | - |
| 1778032684 | 3.33° C | 54% | 1013.8 hPa | 0 mm | 1.79 m/s, 333° | 0 W/m² | - |
| 1778032384 | 3.33° C | 53% | 1013.7 hPa | 0 mm | 1.79 m/s, 334° | 0 W/m² | - |
| 1778032084 | 3.33° C | 54% | 1013.6 hPa | 0 mm | 1.79 m/s, 310° | 0 W/m² | - |
| 1778031785 | 3.33° C | 54% | 1013.6 hPa | 0 mm | 1.79 m/s, 334° | 0 W/m² | - |
* Rain latest hour (hover to see other rain measurements)
** Current wind speed in m/s (hover to see current wind gust speed)